Overview Statistics Trail Chart Weather Telemetry Raw packets
 

This is the latest recevied weather packets stored in our database for station/object SP6FIG. If no packets are shown the sender has not sent any weather packets the latest 10 day(s).

<< 15 16 17 18 19 20 >>
Time Temp. Humidity Pressure Rain* Wind** Luminosity Snow
1777399277 22.22° C 32% 974.2 hPa - - - -
1777398677 22.22° C 32% 974.1 hPa - - - -
1777398077 22.22° C 32% 974 hPa - - - -
1777397477 22.22° C 32% 973.9 hPa - - - -
1777396877 22.22° C 31% 973.9 hPa - - - -
1777396277 22.22° C 31% 973.8 hPa - - - -
1777395677 22.22° C 31% 973.8 hPa - - - -
1777395077 22.78° C 31% 973.7 hPa - - - -
1777394477 22.22° C 32% 973.7 hPa - - - -
1777393877 22.22° C 32% 973.8 hPa - - - -
1777393277 22.22° C 33% 973.8 hPa - - - -
1777392677 22.22° C 32% 973.7 hPa - - - -
1777392077 22.22° C 31% 973.8 hPa - - - -
1777391477 22.22° C 32% 973.8 hPa - - - -
1777390877 22.22° C 32% 973.9 hPa - - - -
1777390277 22.22° C 32% 973.8 hPa - - - -
1777389677 22.22° C 32% 973.9 hPa - - - -
1777389077 22.22° C 33% 973.9 hPa - - - -
1777388477 22.22° C 31% 974 hPa - - - -
1777387877 21.67° C 29% 974 hPa - - - -
1777387277 22.22° C 26% 974 hPa - - - -
1777386677 22.22° C 23% 974 hPa - - - -
1777386077 22.78° C 23% 974.2 hPa - - - -
1777385477 22.78° C 21% 974.2 hPa - - - -
1777384877 22.78° C 24% 974.2 hPa - - - -

* Rain since midnight (hover to see other rain measurements)
** Current wind speed in m/s (hover to see current wind gust speed)